Regional Weather Roundup
Issued by NWS Wakefield, VA

Home | Current Version | Previous Version | Text Only | Print | Product List | Glossary On
Versions: 1 2 3 4 5 6 7 8 9 10 11 12 13 14 15 16 17 18 19 20 21 22 23 24 25 26 27 28 29 30 31 32 33 34 35 36 37 38 39 40 41 42 43 44 45 46 47 48 49 50
000
ASUS41 KAKQ 281710
RWRAKQ

REGIONAL WEATHER ROUNDUP
NATIONAL WEATHER SERVICE WAKEFIELD VA
1200 PM EST WED JAN 28 2015

Note: "fair" indicates few or no clouds below 12,000 feet with no
significant weather and/or obstructions to visibility. * = Denotes
station may not report precipitation (e.g., rain,snow,etc.),
thunder or fog.

VAZ042-051-052>054-056-281800-
NORTHERN VIRGINIA

CITY           SKY/WX    TMP DP  RH WIND       PRES   REMARKS
WASH NATIONAL  SUNNY     33   7  33 NW17G24   30.25F WCI  22
DULLES         SUNNY     29   7  39 NW16G24   30.24F WCI  17
FORT BELVOIR   SUNNY     31   6  35 NW17      30.25F WCI  19
QUANTICO       SUNNY     34   7  32 N13G25    30.26F WCI  25
FREDERICKSBRG* SUNNY     36   6  29 N13       30.24F
STAFFORD*      SUNNY     34   4  29 N15G25    30.28F WCI  24
WARRENTON      SUNNY     36  14  40 N12G17    30.24S
CULPEPER*      SUNNY     37   3  23 N12G17    30.25S
MANASSAS*      SUNNY     32   9  37 NW20G26     N/A  WCI  20
LEESBURG*      SUNNY     30  12  47 NW12G22   30.26S WCI  21
WINCHESTER     SUNNY     32   1  27 NW14      30.25S WCI  22
FRONT ROYAL*   FAIR      32   5  32 NW9       30.24S
LURAY*         FAIR      36   7  30 NW10G18   30.23F
$$

VAZ048-049-060>072-079>083-281800-
CENTRAL AND SOUTH CENTRAL VIRGINIA

CITY           SKY/WX    TMP DP  RH WIND       PRES   REMARKS
RICHMOND       SUNNY     37   7  28 N12       30.24S
CHESTERFIELD*  FAIR      37   7  28 NW12      30.25F
PETERSBURG*    SUNNY     38   7  27 N10G17    30.25S
HANOVER        SUNNY     36   9  32 NW12G21   30.25F
TAPPAHANNOCK*  SUNNY     34   3  27 NW6       30.24S
QUINTON*       FAIR      34   6  30 N10G17    30.23F
CHARLOTTSVILLE SUNNY     37   1  22 NW9G18    30.23R
GORDONSVILLE*  FAIR      36   4  26 CALM      30.23S
ORANGE*        SUNNY     37  12  35 SW6       30.24F
LOUISA*        SUNNY     37  12  35 N8        30.22F
BUMPASS*       FAIR      35   5  28 N8        30.23F
FARMVILLE*     SUNNY     44   8  23 N3        30.23F
CREWE*         FAIR      38   4  25 NW3       30.23F
FORT PICKETT*  FAIR      37  10  32 N8G16     30.23F
CHASE CITY*    FAIR      39  12  32 NW5       30.24S
CLARKSVILLE*   FAIR      36  14  41 N5        30.24F
SOUTH HILL*    SUNNY     37  11  34 N7        30.29F
LAWRENCEVILLE* FAIR      37  10  33 N13       30.23S
EMPORIA*       SUNNY     36  12  38 NW9G17    30.25F
$$

VAZ088>098-281800-
SOUTHEAST VIRGINIA

CITY           SKY/WX    TMP DP  RH WIND       PRES   REMARKS
NORFOLK        SUNNY     35  13  40 N14       30.20F
VIRGINIA BEACH SUNNY     35  16  45 NW20      30.19F WCI  24
NORFOLK NAVAL  SUNNY     38  11  32 NW12      30.22F
WEST POINT*    SUNNY     38   2  22 NW10      30.25S
SALUDA*        FAIR      33  11  39 NW10G16   30.22R WCI  24
NEWPORT NEWS   SUNNY     38  12  34 N14       30.22S
LANGLEY AFB    SUNNY     35  10  35 N10       30.20F
FORT EUSTIS    SUNNY     35  15  44 N10       30.21S
WILLIAMSBURG*    N/A     41  14  33 N13       30.23S
HR EXEC AP*    FAIR      36  12  38 NW6       30.23F
FRANKLIN*      SUNNY     35   9  34 N6        30.24S
WAKEFIELD      SUNNY     37   7  28 NW12      30.23F
$$

VAZ020-022-025-037-045-281800-
WEST CENTRAL AND SOUTHWEST VIRGINIA

CITY           SKY/WX    TMP DP  RH WIND       PRES   REMARKS
STAUNTON*      SUNNY     32   8  35 W3        30.25S
WAYNESBORO*    FAIR      32  10  39 NW5       30.21S
HOT SPRINGS VA SUNNY     22  10  59 NW16G23   30.08S WCI   8
LYNCHBURG      SUNNY     36   7  29 N9        30.24S
DANVILLE       SUNNY     39  15  37 NW9       30.26F
SOUTH BOSTON*  FAIR      38  10  31 NW5       30.26S
MARTINSVILLE   SUNNY     40  16  37 N8        30.27F
ROANOKE        SUNNY     37  10  32 NW10      30.26F
BLACKSBURG     SUNNY     29  16  57 W6        30.24F
DUBLIN*        SUNNY     32  18  57 N3        30.24F
MARION*        SUNNY     30  16  57 SW10      30.25S WCI  21
HILLSVILLE*    SUNNY     29  16  59 NW7       30.19S
RICHLANDS*     FAIR      24  13  64 CALM      30.25R
WISE*          SUNNY     30  19  64 E3        30.24F
ABINGDON*      SUNNY     30  17  58 CALM      30.27F
$$

MDZ021>025-VAZ099-100-281800-
SOUTHERN MARYLAND AND THE DELMARVA PENINSULA

CITY           SKY/WX    TMP DP  RH WIND       PRES   REMARKS
PATUXENT RIVER SUNNY     33   8  35 NW17      30.20F WCI  22
BAY BRIDGE APT   N/A     32   9  37 NW13G18   30.20S WCI  22
LEONARDTOWN    SUNNY     32   5  32 NW12G17   30.22F WCI  23
DOVER          SUNNY     30   7  37 NW20      30.15F WCI  18
GEORGETOWN     SUNNY     32   5  32 NW12G20   30.15  WCI  23
EASTON         SUNNY     30  10  43 N13G21    30.22F WCI  20
CAMBRIDGE      SUNNY     32   9  37 NW14G22   30.18F WCI  22
SALISBURY      SUNNY     35   8  32 NW18G24   30.16F WCI  24
OCEAN CITY     SUNNY     32   7  35 NW16G24   30.13F WCI  21
WALLOPS ISLAND SUNNY     34   8  33 N13G23    30.16F WCI  25
ACCOMACK*      SUNNY     32  14  47 NW15G25   30.19S WCI  22
$$

NCZ012>017-030>032-281800-
NORTH CENTRAL AND EASTERN NORTH CAROLINA

CITY           SKY/WX    TMP DP  RH WIND       PRES   REMARKS
ROANOKE RAPIDS FAIR      37  12  35 N10G16    30.24S
RALEIGH        SUNNY     39  13  34 VRB5      30.25F
ELIZABETH CITY SUNNY     36  15  42 N13       30.20F
AHOSKIE*       SUNNY     36   7  29 N13       30.23F
EDENTON*       SUNNY     37  14  39 N8G17     30.21F
CURRITUCK*     SUNNY    N/A N/A N/A N13G20    30.20F
KILL DEVIL HLS SUNNY     35  20  53 N9G17     30.17S
MANTEO         SUNNY     36  21  55 N13G20    30.18F
CAPE HATTERAS  MOSUNNY   37  26  64 N9G24     30.16S
TARBORO*       FAIR      40  13  34 NW8       30.25S
GOLDSBORO      SUNNY     40  16  37 N12       30.23S
WASHINGTON     SUNNY     37  11  34 NW9G17    30.22S
GREENVILLE     SUNNY     39  12  33 N13G18    30.24S
NEW BERN       SUNNY     42  17  36 N12G21    30.21F
WILMINGTON     SUNNY     40  20  44 N14G22    30.22S
$$

VAZ048-281800-
ELSEWHERE

CITY           SKY/WX    TMP DP  RH WIND       PRES   REMARKS
HARRISBURG PA  SUNNY     27   4  37 NW14      30.20S WCI  16
BALTIMORE      SUNNY     32   5  32 NW14G23   30.19F WCI  22
ANNAPOLIS      SUNNY     32   7  35 NW12      30.21S WCI  23
ANDREWS AFB    SUNNY     31   7  36 NW15      30.21F WCI  20
PHILADELPHIA   SUNNY     30   2  30 NW21G26   30.14F WCI  17
HENDERSON NC   SUNNY     38   9  30 NW9       30.24F
GREENSBORO     SUNNY     39  16  39 NW5       30.24S
ROCKY MOUNT    SUNNY     40  14  34 N7G18     30.25S
$$

VAZ100-281800-
MARINE

STATION/POSITION TIME  TEMP    WIND        PRES    WAVE   SWELL
                       AIR SEA DIR/SP/G            HT/PER HT/PER
                 (UTC) (F)     (DEG/KT/KT) (MB)    (FT/S) (FT/S)
BRANDYWINE LGT   1700   27 36  340/ 21/ 25 1020.5F
CAPE MAY NJ      1700   28 35  320/ 19/ 25 1019.9F
LEWES DE         1700   29 34  320/ 18/ 21 1020.5F
15NM E FENWICK I 1700   29 40              1019.0F   7/ 6
OCEAN-CITY-INLET 1700   30 35  340/ 17/ 20 1019.9F
WACHAPREAGUE VA  1700   32 36  320/  9/ 17 1021.8S
THOMAS POINT MD  1700   31 36  320/ 15/ 18 1023.5F
COVE POINT MD    1700   29     340/ 18/ 21 1022.6F
SOLOMONS ISLAND  1700      37                N/A
BISHOPS HEAD MD  1700   30 34  330/ 15/ 19 1021.9S
PINEY POINT MD   1700          330/ 16/ 18   N/A
CAMBRIDGE MD     1700   30 35  310/ 15/ 19 1022.1F
LEWISETTA VA     1700   31 36  320/ 13/ 18 1023.2S
RAPPAHANNOCK LGT 1700          330/ 20/ 23 1023.0F
YORK RVR RNG VA  1700   31     340/ 14/ 18 1022.4S
YORKTOWN VA      1700   31 39  300/ 15/ 18 1022.9F
DOMINION TERM VA 1700   32     320/ 11/ 14 1023.0F
KIPTOPEKE VA     1700      43  340/ 22/ 25   N/A
CHES BAY BRIDGE  1700   31 40  320/ 14/ 17 1022.5F
CAPE HENRY VA    1700   30     320/ 17/ 20 1021.5F
CHESAPEAKE LGHT  1600   30     330/ 23/ 28 1022.3R
WILLOUBY STN VA  1700   32     350/ 10/ 12 1023.3F
S CRANEY ISL VA  1700          300/  9/ 13 1023.0F
CAPE HENRY BUOY  1600      43                N/A     6/ 7   2/12
CAPE CHARLES BUO 1700      41                N/A     5/13   3/13
OFFSHORE WE BUOY 1700      44                N/A     7/13   5/13
64NM E OF VA BCH 1700   35 51  340/ 23/ 29 1019.6F  10/12   7/12
DUCK PIER NC     1700   33 41  340/ 17/ 20 1021.1F
44100 DUCK FRF   1700      46                N/A     9/13   5/13
44056 DUCK FRF   1700      43                N/A     7/13   3/13
OREGON INLET NC  1700   35 42  340/ 16/ 24 1021.5F
HATTERAS NC      1700   36 45  360/ 20/ 23 1021.6S
DIAMOND SHLS NC  1700   38 59  350/ 23/ 29 1020.0R   9/12   7/12
CAPE LOOKOUT NC  1700   38     360/ 12/ 16 1021.7F
$$


USA.gov is the U.S. government's official web portal to all federal, state and local government web resources and services.